Home   Weather   Arnsberg   Past weeks

Flag for Germany Past Weather in Arnsberg, North Rhine-Westphalia, Germany — Yesterday and Last 2 Weeks

Now
52 °F

Clear.


Feels Like: 49 °F
Forecast: 51 / 75 °F
Wind: 9 mph from South

Location: Dortmund / Wickede

Current Time: Aug 31, 2016 at 6:19:18 AM

Latest Report: Aug 31, 2016 at 5:50 AM


Visibility: 10 mi

Pressure: 30.18 "Hg

Humidity: 72%

Dew Point: 43 °F

Location of ArnsbergLocation

Past Weather in Arnsberg — Graph

°F

Arnsberg Temperature Yesterday

Maximum temperature yesterday: 73 °F (at 4:50 PM)
Minimum temperature yesterday: 50 °F (at 6:50 AM)
Average temperature yesterday: 64 °F

High & Low Weather Summary for the Past Weeks

 TemperatureHumidityPressure
High91 °F (Aug 25, 3:50 PM)94% (Aug 30, 6:50 AM)30.36 "Hg (Aug 30, 6:50 AM)
Low48 °F (Aug 16, 6:20 AM)16% (Aug 25, 3:50 PM)29.80 "Hg (Aug 18, 2:50 PM)
Average70 °F54%30.05 "Hg
* Reported Aug 15 9:20 PM — Aug 30 9:50 PM, Arnsberg, Weather by CustomWeather, © 2016

Note: Actual official high and low records may vary slightly from our data, if they occured in-between our weather recording intervals... More about our weather records

Advertising

Arnsberg Weather History for the Previous 24 Hours

Scroll right to see more
 ConditionsComfort  
Time TempWeatherWind HumidityBarometerVisibility
9:50 PM
Tue, Aug 30
63 °FClear.2 mph49%30.24 "Hg10 mi
9:20 PM63 °FClear.5 mph45%30.24 "Hg10 mi
8:50 PM64 °FPassing clouds.6 mph46%30.24 "HgN/A
8:20 PM66 °FSunny.7 mph40%30.24 "Hg10 mi
7:50 PM68 °FSunny.7 mph35%30.24 "Hg10 mi
7:20 PM70 °FPassing clouds.8 mph33%30.24 "HgN/A
6:50 PM72 °FPassing clouds.8 mph31%30.24 "HgN/A
6:20 PM72 °FSunny.8 mph31%30.27 "Hg10 mi
5:50 PM72 °FPassing clouds.9 mph31%30.27 "HgN/A
5:20 PM72 °FPassing clouds.8 mph31%30.27 "HgN/A
4:50 PM73 °FPassing clouds.6 mph27%30.27 "HgN/A
4:20 PM72 °FPassing clouds.7 mph31%30.27 "HgN/A
3:50 PM72 °FPassing clouds.8 mph31%30.27 "HgN/A
3:20 PM72 °FPassing clouds.6 mph31%30.30 "HgN/A
2:50 PM72 °FSunny.5 mph33%30.30 "Hg10 mi
2:20 PM72 °FSunny.8 mph38%30.30 "Hg10 mi
1:20 PM70 °FPassing clouds.5 mph38%30.33 "HgN/A
12:50 PM68 °FSunny.5 mph46%30.33 "Hg10 mi
12:20 PM68 °FSunny.3 mph49%30.33 "Hg10 mi
11:50 AM66 °FSunny.3 mph52%30.33 "Hg10 mi
11:20 AM64 °FPassing clouds.5 mph60%30.33 "HgN/A
10:50 AM64 °FSunny.2 mph64%30.33 "Hg10 mi
10:20 AM63 °FSunny.2 mph68%30.33 "Hg10 mi
9:50 AM63 °FSunny.2 mph68%30.33 "Hg10 mi
9:20 AM61 °FSunny.3 mph72%30.33 "Hg10 mi
8:50 AM57 °FSunny.3 mph77%30.30 "Hg10 mi
8:20 AM55 °FSunny.6 mph88%30.30 "Hg10 mi
7:50 AM52 °FSunny.3 mph94%30.30 "Hg10 mi
7:20 AM50 °FFog.No wind94%30.27 "HgN/A
6:50 AM50 °FFog.No wind94%30.27 "HgN/A
6:20 AM52 °FClear.3 mph82%30.27 "Hg10 mi
Weather by CustomWeather, © 2016

See weather overviewHow to use our weather pages